Regional Weather Roundup
Issued by NWS

Home | Current Version | Previous Version | Graphics & Text | Print | Product List | Glossary On
Versions: 1 2 3 4 5 6 7 8 9 10 11 12 13 14 15 16 17 18 19 20 21 22 23 24 25 26 27 28 29 30 31 32 33 34 35 36 37 38 39 40 41 42 43 44 45 46 47 48 49 50
000
ASUS43 KMPX 241810
RWRMN
WEATHER ROUNDUP FOR MINNESOTA
NATIONAL WEATHER SERVICE TWIN CITIES/CHANHASSEN MN
100 PM CDT WED MAY 24 2017


NOTE: "FAIR" INDICATES FEW OR NO CLOUDS BELOW 12,000 FEET WITH NO
SIGNIFICANT WEATHER AND/OR OBSTRUCTIONS TO VISIBILITY. N/A MEANS
CURRENT SKY AND/OR WEATHER CONDITIONS ARE NOT AVAILABLE.

MNZ060>063-068>070-241900-
   Twin Cities Metro

CITY           SKY/WX    TMP DP  RH WIND       PRES   REMARKS
TWIN CITIES    CLOUDY    59  44  57 NE6       29.74S
6HR MIN TEMP:  48; 6HR MAX TEMP:  59;

ST PAUL        CLOUDY    58  45  62 NE7       29.74F
CRYSTAL        CLOUDY    59  41  51 NE8       29.73F
BLAINE         PTSUNNY   63  45  51 NE7G16    29.74F
LAKEVILLE      MOSUNNY   57  48  72 NE7       29.73S
EDEN PRAIRIE   MOSUNNY   62  46  55 CALM      29.73S
6HR MIN TEMP:  49; 6HR MAX TEMP:  62;

SOUTH ST PAUL  CLOUDY    59  44  58 NE8       29.73S
LAKE ELMO      CLOUDY    55  46  71 CALM      29.74F
$$
MNZ001>005-007-008-013>017-022>024-027-028-241900-
   Northwest Minnesota

CITY           SKY/WX    TMP DP  RH WIND       PRES   REMARKS
BEMIDJI        MOSUNNY   61  39  44 SE12G18   29.77F
HALLOCK        SUNNY     66  36  32 S20       29.71F
ROSEAU         MOSUNNY   64  43  45 SE13G20   29.74F
WARROAD        MOSUNNY   61  48  63 NE10      29.76F
THIEF RVR FALL MOSUNNY   62  41  46 SE10G23   29.75F
CROOKSTON      SUNNY     64  39  39 SE15G24   29.73F
FOSSTON        SUNNY     63  45  51 SE8G16    29.76F
DETROIT LAKES  MOSUNNY   59  41  51 S9        29.76F
MOORHEAD       PTSUNNY   61  43  51 S10       29.74F
PARK RAPIDS    PTSUNNY   62  37  39 SE13G21   29.76F
MAHNOMEN       FAIR      61  39  44 SE9       29.75F
$$
MNZ006-009>011-018-025>026-241900-
   North Central Minnesota

CITY           SKY/WX    TMP DP  RH WIND       PRES   REMARKS
BAUDETTE       SUNNY     65  39  38 E10       29.76F
FLAG ISLAND    SUNNY     55  45  67 S6        29.76F
INTL FALLS     MOSUNNY   63  36  36 VRB6      29.78F
6HR MIN TEMP:  40; 6HR MAX TEMP:  63;

WASKISH        PTSUNNY   64  41  42 E6        29.77F
BIG FORK       MOSUNNY   63  37  39 E6        29.77F
LONGVILLE      CLOUDY    57  41  54 E6        29.78F
GRAND RAPIDS   CLOUDY    56  41  57 SE6       29.80S
CRANE LAKE     SUNNY     63  30  29 NE5       29.80S
ORR            PTSUNNY   64  34  32 S9G17     29.75F
COOK           PTSUNNY   61  39  44 SE6       29.78F
WALKER         FAIR      59  41  52 E9        29.77F
$$
MNZ012-019>021-037-241900-
   Northeast Minnesota

CITY           SKY/WX    TMP DP  RH WIND       PRES   REMARKS
DULUTH         MOSUNNY   57  43  59 E16G25    29.78F
6HR MIN TEMP:  47; 6HR MAX TEMP:  57;

ELY            CLOUDY    59  37  44 E9        29.78F
HIBBING        CLOUDY    58  41  53 E5        29.78F
EVELETH        PTSUNNY   58  33  39 E6        29.80S
DULUTH HARBOR  MOSUNNY   48  43  81 NE15      29.81S
TWO HARBORS    MOSUNNY   57  46  67 E14       29.78F
SILVER BAY     CLOUDY    55  43  62 E12       29.79F
GRAND MARAIS     N/A     49  38  65 NE9       29.82S
G MARAIS ARPRT MOSUNNY   59  36  41 E8G16     29.81F
$$
MNZ029>031-032-039>041-046>048-054>057-064-241900-
   West Central Minnesota

CITY           SKY/WX    TMP DP  RH WIND       PRES   REMARKS
FERGUS FALLS   CLOUDY    57  43  58 SE9       29.74F
WHEATON        CLOUDY    57  43  58 SE5       29.76F
MORRIS         PTSUNNY   61  45  55 E6        29.74F
ALEXANDRIA     CLOUDY    58  42  55 E10G17    29.77S
ELBOW LAKE     CLOUDY    58  44  58 SE8       29.76F
WADENA         PTSUNNY   61  43  51 E10       29.76S
GLENWOOD       PTSUNNY   55  43  62 NE8       29.77S
APPLETON       CLOUDY    59  43  55 CALM      29.75F
BENSON         CLOUDY    59  43  55 E6        29.77S
ORTONVILLE     CLOUDY    57  45  62 CALM      29.75F
MADISON        CLOUDY    61  48  63 E3        29.75F
WILLMAR        PTSUNNY   57  45  62 NE9       29.77S
$$
MNZ033>034-036-042>043-049>051-058-059-241900-
   Central Minnesota

CITY           SKY/WX    TMP DP  RH WIND       PRES   REMARKS
ST CLOUD       CLOUDY    56  44  64 E6        29.75F
6HR MIN TEMP:  48; 6HR MAX TEMP:  56;

SAUK CENTRE    CLOUDY    55  43  64 E8        29.77S
PAYNESVILLE    CLOUDY    55  42  61 NE9       29.76F
AITKIN         CLOUDY    57  43  58 E10G16    29.76F
PINE RIVER     CLOUDY    57  43  58 E10       29.81F
BRAINERD       CLOUDY    55  42  61 SE5       29.78S
STAPLES        CLOUDY    57  37  47 E9G17     29.77S
LONG PRAIRIE   CLOUDY    54  43  66 E7        29.77F
LITTLE FALLS   CLOUDY    54  43  66 E5        29.78S
LITCHFIELD     PTSUNNY   57  46  67 NE6       29.76S
BUFFALO        PTSUNNY   58  43  56 NE9       29.76S
MAPLE LAKE     CLOUDY    57  47  69 NE6       29.76S
HUTCHINSON     PTSUNNY   56  47  71 NE9       29.76S
$$
MNZ037-044-045-052-053-241900-
   East Central Minnesota

CITY           SKY/WX    TMP DP  RH WIND       PRES   REMARKS
PRINCETON      CLOUDY    59  45  58 N10       29.76S
MORA           CLOUDY    55  41  58 NE6       29.78S
CAMBRIDGE      CLOUDY    59  45  58 NE7       29.74S
RUSH CITY      CLOUDY    57  45  62 NE7       29.76S
MOOSE LAKE     MOSUNNY   59  43  55 NE9G16    29.75F
HINCKLEY       CLOUDY    57  43  58 E9        29.76S
CLOQUET        SUNNY     55  43  62 E12       29.78S
MCGREGOR       CLOUDY    55  43  62 E14G20    29.78F
$$
MNZ071>073-080-081-089-090-097-098-241900-
   Southwest Minnesota

CITY           SKY/WX    TMP DP  RH WIND       PRES   REMARKS
MONTEVIDEO     CLOUDY    61  45  55 E3        29.75F
CANBY          CLOUDY    59  46  60 CALM      29.76F
MARSHALL       CLOUDY    57  46  66 VRB5      29.75F
REDWOOD FALLS  CLOUDY    60  42  51 E10       29.74F
OLIVIA         CLOUDY    59  43  55 NE9G16    29.74F
PIPESTONE      CLOUDY    57  39  51 N5        29.74S
WINDOM         SUNNY     55  45  67 NE7       29.75F
WORTHINGTON    CLOUDY    55  45  67 NE12      29.75F
JACKSON        CLOUDY    54  45  71 N5G10     29.75F
TRACY          CLOUDY    56  47  70 CALM      29.75F
SLAYTON        PTSUNNY   56  45  66 NE8       29.75F
$$
MNZ065>067-074>077-082>085-091>093-241900-
   South Central Minnesota

CITY           SKY/WX    TMP DP  RH WIND       PRES   REMARKS
NEW ULM        MOSUNNY   55  45  67 NE7       29.74F
ST JAMES       PTSUNNY   57  48  72 N8        29.75F
FAIRMONT       CLOUDY    53  46  77 NE6       29.75F
GLENCOE        CLOUDY    58  50  74 NE5       29.75S
FARIBAULT      CLOUDY    57  48  72 N8        29.74S
OWATONNA       CLOUDY    55  46  71 N8        29.73S
WASECA         CLOUDY    55  48  76 NE8       29.74S
ALBERT LEA     CLOUDY    55  48  76 N7        29.72S
$$
MNZ078>079-086>088-094>096-241900-
   Southeast Minnesota

CITY           SKY/WX    TMP DP  RH WIND       PRES   REMARKS
ROCHESTER      MOSUNNY   59  49  69 N14       29.72F
6HR MIN TEMP:  47; 6HR MAX TEMP:  59;

RED WING       CLOUDY    61  43  51 N6        29.71S
STANTON        PTSUNNY   60  48  66 NE7       29.72F
DODGE CENTER   MOSUNNY   57  48  72 N6        29.71F
WINONA         CLOUDY    61  46  59 NE7       29.70F
AUSTIN         CLOUDY    57  48  72 N8        29.71F
PRESTON        CLOUDY    56  47  69 N8        29.70F
$$
ABBREVIATIONS USED IN REMARKS
   TC - TEMPERATURES IN CELSIUS
  WCI - WIND CHILL INDEX
   HX - HEAT INDEX
  VSB - VISIBILITY
$$




USA.gov is the U.S. government's official web portal to all federal, state and local government web resources and services.